• In Hungary
  • List of Countries
  • For 7 days
  • Water Temperature
  • Satellite Maps
  • Weather Map
  • News
  • Weather Widgets
  • user-avatar
    Login

    Hourly Weather Holoy

    Today, 21 October, Saturday

    Time Temperature Precipitation Wind Pressure Humidity
    00:00 -3°C° 0.1 mm 1 mps 604 mmHg 90%
    01:00 -3°C° 0.1 mm 1 mps 605 mmHg 90%
    02:00 -3°C° 0.2 mm 1 mps 605 mmHg 91%
    03:00 -3°C° 0.2 mm 1 mps 605 mmHg 92%
    04:00 -3°C° 0.2 mm 1 mps 605 mmHg 92%
    05:00 -3°C° 0.3 mm 1 mps 606 mmHg 93%
    06:00 -3°C° 0.3 mm 1 mps 606 mmHg 93%
    07:00 -4°C° 0 mm 1 mps 607 mmHg 92%
    08:00 -2°C° 0 mm 1 mps 607 mmHg 83%
    09:00 0°C° 0 mm 1 mps 608 mmHg 75%
    10:00 +1°C° 0 mm 0 mps 609 mmHg 67%
    11:00 +2°C° 0 mm 1 mps 609 mmHg 62%
    12:00 +3°C° 0 mm 1 mps 609 mmHg 57%
    13:00 +4°C° 0 mm 1 mps 609 mmHg 51%
    14:00 +3°C° 0 mm 1 mps 609 mmHg 55%
    15:00 +2°C° 0 mm 1 mps 608 mmHg 58%
    16:00 +1°C° 0 mm 1 mps 608 mmHg 62%
    17:00 0°C° 0 mm 1 mps 608 mmHg 65%
    18:00 -2°C° 0 mm 1 mps 607 mmHg 67%
    19:00 -5°C° 0 mm 2 mps 607 mmHg 70%
    20:00 -5°C° 0 mm 2 mps 607 mmHg 69%
    21:00 -5°C° 0 mm 2 mps 607 mmHg 68%
    22:00 -5°C° 0 mm 2 mps 607 mmHg 67%
    23:00 -5°C° 0 mm 2 mps 607 mmHg 66%

    Tomorrow, 22 October, Sunday

    Time Temperature Precipitation Wind Pressure Humidity
    00:00 -5°C° 0 mm 2 mps 607 mmHg 65%
    01:00 -6°C° 0 mm 2 mps 607 mmHg 64%
    02:00 -6°C° 0 mm 2 mps 607 mmHg 63%
    03:00 -6°C° 0 mm 2 mps 606 mmHg 62%
    04:00 -6°C° 0 mm 2 mps 606 mmHg 61%
    05:00 -6°C° 0 mm 2 mps 606 mmHg 60%
    06:00 -5°C° 0 mm 2 mps 606 mmHg 60%
    07:00 -5°C° 0 mm 2 mps 606 mmHg 59%
    08:00 -3°C° 0 mm 2 mps 607 mmHg 55%
    09:00 -1°C° 0 mm 2 mps 608 mmHg 50%
    10:00 +2°C° 0 mm 2 mps 608 mmHg 45%
    11:00 +3°C° 0 mm 2 mps 608 mmHg 44%
    12:00 +4°C° 0 mm 2 mps 608 mmHg 43%
    13:00 +5°C° 0 mm 2 mps 608 mmHg 41%
    14:00 +4°C° 0 mm 2 mps 607 mmHg 47%
    15:00 +3°C° 0 mm 2 mps 606 mmHg 53%
    16:00 +2°C° 0 mm 2 mps 605 mmHg 59%
    17:00 -1°C° 0 mm 2 mps 605 mmHg 61%
    18:00 -2°C° 0 mm 2 mps 605 mmHg 64%
    19:00 -4°C° 0 mm 3 mps 604 mmHg 67%
    20:00 -4°C° 0 mm 3 mps 604 mmHg 66%
    21:00 -5°C° 0 mm 3 mps 604 mmHg 66%
    22:00 -5°C° 0 mm 3 mps 604 mmHg 66%
    23:00 -5°C° 0 mm 3 mps 604 mmHg 66%

    Day after tomorrow, 23 October, Monday

    Time Temperature Precipitation Wind Pressure Humidity
    00:00 -5°C° 0 mm 3 mps 603 mmHg 66%
    01:00 -5°C° 0 mm 3 mps 603 mmHg 66%
    02:00 -5°C° 0 mm 3 mps 603 mmHg 66%
    03:00 -5°C° 0 mm 2 mps 603 mmHg 65%
    04:00 -5°C° 0 mm 2 mps 603 mmHg 65%
    05:00 -5°C° 0 mm 2 mps 603 mmHg 63%
    06:00 -5°C° 0 mm 2 mps 603 mmHg 62%
    07:00 -4°C° 0 mm 2 mps 604 mmHg 60%
    08:00 0°C° 0 mm 1 mps 605 mmHg 54%
    09:00 +2°C° 0 mm 1 mps 606 mmHg 49%
    10:00 +5°C° 0 mm 1 mps 607 mmHg 43%
    11:00 +5°C° 0 mm 1 mps 607 mmHg 41%
    12:00 +6°C° 0 mm 1 mps 606 mmHg 40%
    13:00 +7°C° 0 mm 1 mps 606 mmHg 38%
    14:00 +6°C° 0 mm 1 mps 606 mmHg 44%
    15:00 +4°C° 0 mm 1 mps 606 mmHg 50%
    16:00 +2°C° 0 mm 0 mps 605 mmHg 55%
    17:00 +2°C° 0 mm 1 mps 605 mmHg 62%
    18:00 0°C° 0 mm 1 mps 606 mmHg 69%
    19:00 -4°C° 0 mm 2 mps 606 mmHg 75%
    20:00 -4°C° 0 mm 2 mps 606 mmHg 80%
    21:00 -4°C° 0 mm 2 mps 607 mmHg 86%
    22:00 -4°C° 0 mm 2 mps 607 mmHg 91%
    23:00 -3°C° 0 mm 1 mps 607 mmHg 92%

    24 October, Tuesday

    Time Temperature Precipitation Wind Pressure Humidity
    00:00 -3°C° 0 mm 1 mps 608 mmHg 93%
    01:00 -3°C° 0 mm 1 mps 608 mmHg 93%
    02:00 -3°C° 0 mm 1 mps 607 mmHg 94%
    03:00 -4°C° 0 mm 1 mps 607 mmHg 94%
    04:00 -4°C° 0 mm 1 mps 607 mmHg 94%
    05:00 -4°C° 0 mm 1 mps 607 mmHg 94%
    06:00 -4°C° 0 mm 1 mps 607 mmHg 95%
    07:00 -6°C° 0 mm 1 mps 607 mmHg 95%
    08:00 -3°C° 0 mm 1 mps 608 mmHg 87%
    09:00 -2°C° 0 mm 1 mps 608 mmHg 79%
    10:00 0°C° 0 mm 1 mps 609 mmHg 71%
    11:00 0°C° 0 mm 1 mps 609 mmHg 69%
    12:00 +1°C° 0 mm 1 mps 609 mmHg 66%
    13:00 +1°C° 0 mm 2 mps 609 mmHg 64%
    14:00 +1°C° 0 mm 1 mps 608 mmHg 68%
    15:00 0°C° 0 mm 1 mps 608 mmHg 72%
    16:00 -1°C° 0 mm 1 mps 608 mmHg 77%
    17:00 -2°C° 0 mm 1 mps 607 mmHg 81%
    18:00 -3°C° 0 mm 1 mps 607 mmHg 85%
    19:00 -4°C° 0 mm 1 mps 607 mmHg 89%
    20:00 -4°C° 0 mm 1 mps 607 mmHg 89%
    21:00 -6°C° 0 mm 1 mps 607 mmHg 89%
    22:00 -6°C° 0 mm 1 mps 607 mmHg 89%
    23:00 -6°C° 0 mm 1 mps 607 mmHg 87%

    25 October, Wednesday

    Time Temperature Precipitation Wind Pressure Humidity
    00:00 -6°C° 0 mm 1 mps 607 mmHg 85%
    01:00 -6°C° 0 mm 1 mps 607 mmHg 84%
    02:00 -6°C° 0 mm 1 mps 606 mmHg 82%
    03:00 -6°C° 0 mm 1 mps 606 mmHg 81%
    04:00 -6°C° 0 mm 1 mps 606 mmHg 79%
    05:00 -6°C° 0 mm 1 mps 606 mmHg 78%
    06:00 -6°C° 0 mm 1 mps 606 mmHg 78%
    07:00 -6°C° 0 mm 1 mps 606 mmHg 77%
    08:00 -3°C° 0 mm 1 mps 606 mmHg 69%
    09:00 0°C° 0 mm 1 mps 607 mmHg 60%
    10:00 +2°C° 0 mm 1 mps 608 mmHg 52%
    11:00 +3°C° 0 mm 1 mps 607 mmHg 50%
    12:00 +4°C° 0 mm 1 mps 607 mmHg 47%
    13:00 +4°C° 0 mm 1 mps 607 mmHg 45%
    14:00 +3°C° 0 mm 1 mps 607 mmHg 51%
    15:00 +2°C° 0 mm 1 mps 606 mmHg 57%
    16:00 +1°C° 0 mm 1 mps 605 mmHg 63%
    17:00 0°C° 0 mm 1 mps 605 mmHg 65%
    18:00 -1°C° 0 mm 1 mps 605 mmHg 68%
    19:00 -3°C° 0 mm 1 mps 605 mmHg 70%
    20:00 -3°C° 0 mm 1 mps 605 mmHg 68%
    21:00 -5°C° 0 mm 2 mps 605 mmHg 67%
    22:00 -5°C° 0 mm 2 mps 605 mmHg 65%
    23:00 -5°C° 0 mm 2 mps 604 mmHg 64%

    26 October, Thursday

    Time Temperature Precipitation Wind Pressure Humidity
    00:00 -5°C° 0 mm 2 mps 604 mmHg 63%
    01:00 -5°C° 0 mm 2 mps 604 mmHg 62%
    02:00 -5°C° 0 mm 2 mps 604 mmHg 62%
    03:00 -5°C° 0 mm 2 mps 603 mmHg 62%
    04:00 -5°C° 0 mm 2 mps 603 mmHg 62%
    05:00 -5°C° 0 mm 2 mps 603 mmHg 62%
    06:00 -5°C° 0 mm 2 mps 603 mmHg 61%
    07:00 -5°C° 0 mm 2 mps 602 mmHg 60%
    08:00 -3°C° 0 mm 2 mps 603 mmHg 55%
    09:00 -1°C° 0 mm 2 mps 603 mmHg 50%
    10:00 +1°C° 0 mm 2 mps 603 mmHg 45%
    11:00 +2°C° 0 mm 2 mps 603 mmHg 44%
    12:00 +3°C° 0 mm 2 mps 603 mmHg 42%
    13:00 +4°C° 0 mm 2 mps 602 mmHg 40%
    14:00 +3°C° 0 mm 2 mps 602 mmHg 48%
    15:00 +1°C° 0 mm 2 mps 601 mmHg 55%
    16:00 -1°C° 0 mm 2 mps 600 mmHg 62%
    17:00 -2°C° 0 mm 2 mps 600 mmHg 68%
    18:00 -4°C° 0 mm 2 mps 600 mmHg 74%
    19:00 -5°C° 0 mm 2 mps 600 mmHg 80%
    20:00 -6°C° 0.3 mm 2 mps 600 mmHg 83%
    21:00 -6°C° 0.3 mm 2 mps 600 mmHg 86%
    22:00 -6°C° 0.3 mm 2 mps 600 mmHg 89%
    23:00 -7°C° 0.9 mm 2 mps 600 mmHg 90%
    Show more